Milwaukee Timmerman, WI

9:07 AM CST on February 23, 2018 (GMT -0600)
Timmerman

Weather History for KMWC - March, 2014

Change the Weather History Date:

Monday, March 3, 2014

  Actual Average Record
Temperature  
Mean Temperature 13 °F -  
Max Temperature 30 °F 39 °F 70 °F (1974)
Min Temperature -4 °F 24 °F -4 °F (2014)
Degree Days  
Heating Degree Days 52    
Moisture  
Dew Point -7 °F    
Average Humidity 53    
Maximum Humidity 67    
Minimum Humidity 29    
Precipitation  
Precipitation 0.00 in - - ()
Sea Level Pressure  
Sea Level Pressure 30.42 in    
Wind  
Wind Speed 8 mph (WNW)    
Max Wind Speed 12 mph    
Max Gust Speed -    
Visibility 10 miles    
Events      
Averages and records for this station are not official NWS values.
T = Trace of Precipitation, MM = Missing Value Source: NWS Daily Summary

Daily Weather History Graph

Daily Weather History Graph

Search for Another Location

Airport or City:

Trip Planner

Search our weather history database for the weather conditions in past years. The results will help you decide how hot, cold, wet, or windy it might be!

Date:

Astronomy

Mar. 03, 2014 Rise Set
Actual Time 6:24 AM CST 5:43 PM CST
Civil Twilight 5:56 AM CST 6:12 PM CST
Nautical Twilight 5:23 AM CST 6:45 PM CST
Astronomical Twilight 4:50 AM CST 7:18 PM CST
Moon 7:28 AM CST (3/3) 8:52 PM CST (3/3)
Length of Visible Light 12h 15m
Length of Day
11h 19m
Waxing Crescent, 8% of the Moon is Illuminated
Mar 3
Waxing Crescent
Mar 8
First Quarter
Mar 16
Full
Mar 23
Last Quarter
Mar 30
New

Hourly Weather History & Observations

Time (CST) Temp. Windchill Dew Point Humidity Pressure Visibility Wind Dir Wind Speed Gust Speed Precip Events Conditions
12:15 AM 1.4 °F -15.3 °F -18.4 °F 39% 30.45 in 10.0 mi NNW 11.5 mph - N/A   Clear
12:35 AM 1.4 °F -15.3 °F -18.4 °F 39% 30.44 in 10.0 mi NNW 11.5 mph - N/A   Clear
12:55 AM -0.4 °F -15.7 °F -18.4 °F 43% 30.45 in 10.0 mi NNW 9.2 mph - N/A   Clear
1:15 AM -0.4 °F -16.7 °F -16.6 °F 46% 30.44 in 10.0 mi NNW 10.4 mph - N/A   Clear
1:35 AM -0.4 °F -17.6 °F -16.6 °F 46% 30.43 in 10.0 mi NNW 11.5 mph - N/A   Clear
1:55 AM -0.4 °F -16.7 °F -16.6 °F 46% 30.44 in 10.0 mi NNW 10.4 mph - N/A   Clear
2:15 AM -0.4 °F -17.6 °F -16.6 °F 46% 30.44 in 10.0 mi NNW 11.5 mph - N/A   Clear
2:35 AM -0.4 °F -15.7 °F -16.6 °F 46% 30.43 in 10.0 mi NNW 9.2 mph - N/A   Clear
2:55 AM -0.4 °F -14.7 °F -16.6 °F 46% 30.44 in 10.0 mi NNW 8.1 mph - N/A   Clear
3:15 AM -0.4 °F -15.7 °F -16.6 °F 46% 30.44 in 10.0 mi North 9.2 mph - N/A   Clear
3:35 AM -2.2 °F -16.8 °F -16.6 °F 50% 30.44 in 10.0 mi NNW 8.1 mph - N/A   Clear
3:55 AM -2.2 °F -15.6 °F -16.6 °F 50% 30.44 in 10.0 mi NNW 6.9 mph - N/A   Clear
4:15 AM -2.2 °F -15.6 °F -16.6 °F 50% 30.45 in 10.0 mi North 6.9 mph - N/A   Clear
4:35 AM -4.0 °F -16.3 °F -16.6 °F 55% 30.46 in 10.0 mi NNW 5.8 mph - N/A   Clear
4:55 AM -4.0 °F -16.3 °F -16.6 °F 55% 30.46 in 10.0 mi NNW 5.8 mph - N/A   Clear
5:15 AM -4.0 °F -14.6 °F -16.6 °F 55% 30.46 in 10.0 mi NNW 4.6 mph - N/A   Clear
5:35 AM -4.0 °F -14.6 °F -16.6 °F 55% 30.46 in 10.0 mi NNW 4.6 mph - N/A   Clear
5:55 AM -4.0 °F -16.3 °F -16.6 °F 55% 30.46 in 10.0 mi North 5.8 mph - N/A   Clear
6:15 AM -4.0 °F -19.0 °F -14.8 °F 60% 30.47 in 10.0 mi North 8.1 mph - N/A   Clear
6:35 AM -4.0 °F -16.3 °F -14.8 °F 60% 30.47 in 10.0 mi NNW 5.8 mph - N/A   Clear
6:45 AM -2.2 °F -15.6 °F -16.6 °F 50% 30.47 in 10.0 mi North 6.9 mph - N/A   Clear
7:45 AM -0.4 °F -12.0 °F -14.8 °F 51% 30.48 in 10.0 mi North 5.8 mph - N/A   Clear
8:45 AM 5.0 °F -4.1 °F -11.2 °F 47% 30.49 in 10.0 mi NW 4.6 mph - N/A   Clear
9:45 AM 8.6 °F 0.1 °F -7.6 °F 48% 30.49 in 10.0 mi NW 4.6 mph - N/A   Clear
10:45 AM 12.2 °F 4.3 °F -2.2 °F 53% 30.48 in 10.0 mi WNW 4.6 mph - N/A   Clear
11:45 AM 30.2 °F - 1.4 °F 29% 30.49 in 10.0 mi Calm Calm - N/A   Clear
12:45 PM 17.6 °F 9.3 °F -0.4 °F 45% 30.46 in 10.0 mi SW 5.8 mph - N/A   Clear
1:45 PM 17.6 °F 10.7 °F -0.4 °F 45% 30.43 in 10.0 mi South 4.6 mph - N/A   Clear
2:45 PM 19.4 °F 8.6 °F -0.4 °F 42% 30.43 in 10.0 mi WSW 9.2 mph - N/A   Clear
3:45 PM 17.6 °F 7.3 °F -0.4 °F 45% 30.42 in 10.0 mi WSW 8.1 mph - N/A   Clear
4:45 PM 17.6 °F 7.3 °F -2.2 °F 42% 30.42 in 10.0 mi WSW 8.1 mph - N/A   Clear
5:45 PM 15.8 °F 4.2 °F -0.4 °F 49% 30.40 in 10.0 mi SW 9.2 mph - N/A   Clear
6:45 PM 15.8 °F 6.1 °F 1.4 °F 53% 30.39 in 10.0 mi North 6.9 mph - N/A   Mostly Cloudy
7:45 PM 14.0 °F 3.9 °F 1.4 °F 57% 30.38 in 10.0 mi SSW 6.9 mph - N/A   Clear
8:15 PM 14.0 °F 3.9 °F 3.2 °F 62% 30.37 in 10.0 mi SSW 6.9 mph - N/A   Scattered Clouds
8:35 PM 14.0 °F 3.9 °F 3.2 °F 62% 30.37 in 10.0 mi SW 6.9 mph - N/A   Clear
8:45 PM 12.2 °F 0.7 °F 3.2 °F 67% 30.37 in 10.0 mi SSW 8.1 mph - N/A   Clear
8:55 PM 14.0 °F 5.1 °F 3.2 °F 62% 30.37 in 10.0 mi WSW 5.8 mph - N/A   Scattered Clouds
9:15 PM 12.2 °F 4.3 °F 3.2 °F 67% 30.37 in 10.0 mi SW 4.6 mph - N/A   Clear
9:35 PM 12.2 °F 4.3 °F 3.2 °F 67% 30.37 in 10.0 mi SSW 4.6 mph - N/A   Clear
9:55 PM 12.2 °F 6.1 °F 3.2 °F 67% 30.36 in 10.0 mi SSW 3.5 mph - N/A   Scattered Clouds
10:15 PM 12.2 °F 6.1 °F 3.2 °F 67% 30.35 in 10.0 mi SSW 3.5 mph - N/A   Clear
10:35 PM 12.2 °F 6.1 °F 3.2 °F 67% 30.35 in 10.0 mi SW 3.5 mph - N/A   Scattered Clouds
10:55 PM 12.2 °F 6.1 °F 3.2 °F 67% 30.35 in 10.0 mi SW 3.5 mph - N/A   Scattered Clouds
11:15 PM 12.2 °F 6.1 °F 3.2 °F 67% 30.34 in 10.0 mi WSW 3.5 mph - N/A   Mostly Cloudy
11:35 PM 12.2 °F 2.9 °F 3.2 °F 67% 30.34 in 10.0 mi SW 5.8 mph - N/A   Overcast
11:55 PM 12.2 °F 4.3 °F 3.2 °F 67% 30.34 in 10.0 mi SW 4.6 mph - N/A   Overcast